Погода в Крестах

Россия / Псковская область     55°47′46″N   31°24′44″E
темп.,
°C
ветер,
м/с
пор.,
м/с
влажн.,
%
обл.,
%
осадки,
мм/ч
давл.,
гПа
погр.,
м
17 апреля, сб
сб1700:00+10всв4109098 3.6 1019639
03:00+9всв4109094 4.4 1019574
06:00+8всв41193100 0.2 1020634
09:00+9в4889100 0.8 1021737
12:00+11всв3682100 0.0 1021868
15:00+12св4778100 0.0 10211027
18:00+12св51173100 0.0 10201242
21:00+11св5137525 0.0 1020760
18 апреля, вс
вс1800:00+9св513775 0.0 1020640
03:00+7св4127499 0.0 1020532
06:00+5св4127681 0.0 1021518
09:00+8всв596620 0.0 1021712
12:00+11всв585899 0.0 10211223
15:00+10всв41063100 0.0 10221290
18:00+9в396795 0.0 10221303
21:00+6всв278897 0.0 1023293
19 апреля, пн
пн1900:00+7всв3982100 0.0 1023626
03:00+6всв3786100 0.0 1024870
06:00+6всв4984100 0.0 1024834
09:00+6всв4984100 0.1 1024816
12:00+8всв4878100 0.0 1024937
15:00+8всв5979100 0.1 10241148
18:00+7в5118489 0.1 10231065
21:00+5всв41095100 0.2 1023739
20 апреля, вт
вт2000:00+6всв4987100 0.0 1021921
03:00+5всв4995100 0.1 1020803
06:00+5всв41095100 0.1 1019721
09:00+5всв51080100 0.1 1017656
12:00+5всв51084100 0.0 1016796
15:00+4св51094100 0.1 1014720
18:00+3св51196100 0.3 1011635
21:00+2ссв51397100 2.6 1006682
21 апреля, ср
ср2100:00+1ссв51498100 6.6 1001584
03:00+4ссв51198100 10.6 996846
06:00+5св41198100 1.0 993653
09:00+7св3897100 1.4 992433
12:00+6сз2499100 1.5 992228
15:00+2зюз61297100 3.4 996528
18:00+3зюз51297100 1.3 1001853
21:00+3юз41097100 1.9 1004871